�������l�o���
Date,Time,MP-1(��Sv/h),MP-2(��Sv/h),MP-3(��Sv/h),MP-4(��Sv/h),MP-5(��Sv/h),MP-6(��Sv/h),MP-7(��Sv/h),MP-8(��Sv/h),����,����(m/s),���J
2022/05/10,00:00,0.559,0.832,0.532,1.018,0.713,0.339,0.590,0.557,��쐼,4.3,��
2022/05/10,00:10,0.559,0.832,0.532,1.013,0.713,0.341,0.589,0.556,��쐼,3.9,��
2022/05/10,00:20,0.557,0.832,0.534,1.015,0.713,0.340,0.589,0.558,��쐼,3.6,��
2022/05/10,00:30,0.560,0.831,0.532,1.016,0.713,0.340,0.588,0.557,��쐼,3.6,��
2022/05/10,00:40,0.559,0.831,0.532,1.016,0.715,0.340,0.590,0.558,�쐼,3.4,��
2022/05/10,00:50,0.556,0.831,0.532,1.015,0.713,0.341,0.589,0.557,�쐼,3.4,��
2022/05/10,01:00,0.560,0.832,0.534,1.016,0.713,0.340,0.591,0.557,�쐼,3.3,��
2022/05/10,01:10,0.558,0.831,0.532,1.015,0.712,0.341,0.591,0.558,�쐼,2.6,��
2022/05/10,01:20,0.559,0.830,0.532,1.015,0.714,0.340,0.590,0.557,�쐼,2.9,��
2022/05/10,01:30,0.559,0.830,0.531,1.015,0.713,0.341,0.591,0.556,���쐼,2.9,��
2022/05/10,01:40,0.558,0.831,0.534,1.017,0.715,0.340,0.590,0.555,���쐼,2.3,��
2022/05/10,01:50,0.558,0.829,0.532,1.017,0.713,0.339,0.590,0.556,���쐼,2.3,��
2022/05/10,02:00,0.557,0.830,0.533,1.019,0.715,0.340,0.591,0.557,�쐼,2.8,��
2022/05/10,02:10,0.559,0.830,0.531,1.015,0.714,0.339,0.590,0.556,�쐼,3.1,��
2022/05/10,02:20,0.558,0.829,0.532,1.018,0.713,0.340,0.590,0.556,�쐼,3.2,��
2022/05/10,02:30,0.558,0.831,0.532,1.015,0.713,0.340,0.590,0.557,�쐼,2.6,��
2022/05/10,02:40,0.558,0.830,0.531,1.016,0.715,0.338,0.590,0.556,�쐼,2.2,��
2022/05/10,02:50,0.558,0.829,0.532,1.018,0.715,0.339,0.591,0.556,�쐼,1.7,��
2022/05/10,03:00,0.559,0.830,0.533,1.017,0.713,0.341,0.590,0.557,��,1.7,��
2022/05/10,03:10,0.559,0.830,0.531,1.018,0.714,0.339,0.590,0.556,���k��,2.3,��
2022/05/10,03:20,0.558,0.830,0.532,1.018,0.715,0.340,0.590,0.556,�k��,2.9,��
2022/05/10,03:30,0.556,0.830,0.531,1.017,0.714,0.341,0.590,0.557,�k��,2.6,��
2022/05/10,03:40,0.558,0.831,0.533,1.017,0.715,0.340,0.590,0.557,�k��,2.9,��
2022/05/10,03:50,0.559,0.829,0.533,1.017,0.714,0.340,0.590,0.556,�k��,2.9,��
2022/05/10,04:00,0.558,0.831,0.533,1.019,0.716,0.341,0.591,0.557,���k��,3.0,��
2022/05/10,04:10,0.558,0.832,0.532,1.020,0.720,0.341,0.591,0.557,���k��,3.4,��
2022/05/10,04:20,0.558,0.831,0.532,1.017,0.714,0.339,0.590,0.556,�k��,3.2,��
2022/05/10,04:30,0.556,0.830,0.533,1.019,0.715,0.339,0.591,0.557,���k��,3.8,��
2022/05/10,04:40,0.559,0.831,0.531,1.019,0.716,0.340,0.591,0.556,���k��,3.9,��
2022/05/10,04:50,0.558,0.832,0.529,1.019,0.716,0.340,0.591,0.558,�k��,3.9,��
2022/05/10,05:00,0.559,0.828,0.532,1.020,0.714,0.339,0.592,0.556,�k��,3.6,��
2022/05/10,05:10,0.557,0.829,0.534,1.021,0.715,0.340,0.589,0.559,�k��,4.1,��
2022/05/10,05:20,0.558,0.829,0.532,1.019,0.713,0.341,0.591,0.556,�k��,3.9,��
2022/05/10,05:30,0.558,0.831,0.533,1.020,0.716,0.341,0.590,0.558,�k��,4.4,��
2022/05/10,05:40,0.558,0.830,0.532,1.020,0.713,0.340,0.591,0.557,�k��,4.5,��
2022/05/10,05:50,0.558,0.832,0.533,1.019,0.715,0.340,0.592,0.558,�k�k��,5.0,��
2022/05/10,06:00,0.558,0.832,0.533,1.018,0.715,0.341,0.591,0.558,�k��,6.4,��
2022/05/10,06:10,0.559,0.831,0.533,1.019,0.716,0.339,0.591,0.557,�k��,5.8,��
2022/05/10,06:20,0.558,0.833,0.532,1.021,0.715,0.341,0.591,0.557,�k��,5.6,��
2022/05/10,06:30,0.560,0.831,0.532,1.022,0.714,0.340,0.593,0.558,�k��,5.1,��
2022/05/10,06:40,0.559,0.834,0.535,1.018,0.716,0.342,0.593,0.558,�k�k��,5.2,��
2022/05/10,06:50,0.560,0.832,0.534,1.021,0.717,0.341,0.593,0.559,�k�k��,5.1,��
2022/05/10,07:00,0.561,0.833,0.534,1.020,0.715,0.342,0.592,0.557,�k�k��,4.7,��
2022/05/10,07:10,0.561,0.832,0.533,1.019,0.716,0.340,0.593,0.558,�k�k��,3.9,��
2022/05/10,07:20,0.561,0.832,0.534,1.022,0.714,0.339,0.593,0.556,�k�k��,4.1,��
2022/05/10,07:30,0.562,0.834,0.534,1.021,0.716,0.340,0.594,0.558,�k�k��,4.0,��
2022/05/10,07:40,0.560,0.831,0.536,1.022,0.717,0.339,0.593,0.560,�k�k��,3.7,��
2022/05/10,07:50,0.563,0.832,0.535,1.022,0.716,0.339,0.595,0.558,�k�k��,3.1,��
2022/05/10,08:00,0.562,0.834,0.534,1.022,0.718,0.340,0.594,0.557,�k�k��,2.3,��
2022/05/10,08:10,0.562,0.832,0.537,1.023,0.717,0.339,0.593,0.558,�k,2.5,��
2022/05/10,08:20,0.563,0.833,0.535,1.021,0.719,0.342,0.594,0.558,�k�k��,2.0,��
2022/05/10,08:30,0.562,0.833,0.535,1.021,0.718,0.341,0.594,0.557,�k,2.0,��
2022/05/10,08:40,0.562,0.833,0.535,1.023,0.719,0.341,0.592,0.557,�k,2.2,��
2022/05/10,08:50,0.563,0.832,0.534,1.020,0.718,0.341,0.593,0.557,�k��,3.1,��
2022/05/10,09:00,0.562,0.834,0.535,1.023,0.718,0.341,0.591,0.556,�k�k��,3.3,��
2022/05/10,09:10,0.561,0.834,0.535,1.023,0.717,0.341,0.592,0.557,�k�k��,3.5,��
2022/05/10,09:20,0.563,0.835,0.534,1.023,0.718,0.341,0.592,0.557,�k�k��,5.6,��
2022/05/10,09:30,0.563,0.834,0.537,1.022,0.719,0.340,0.590,0.557,�k�k��,5.3,��
2022/05/10,09:40,0.563,0.836,0.538,1.023,0.719,0.341,0.592,0.559,�k�k��,3.9,��
2022/05/10,09:50,0.563,0.833,0.538,1.023,0.720,0.342,0.591,0.557,�k��,2.5,��
2022/05/10,10:00,0.564,0.836,0.537,1.020,0.722,0.340,0.591,0.556,�k��,1.9,��
2022/05/10,10:10,0.564,0.837,0.536,1.023,0.721,0.341,0.591,0.558,�k��,1.5,��
2022/05/10,10:20,0.565,0.837,0.537,1.021,0.720,0.342,0.593,0.559,�k��,3.4,��
2022/05/10,10:30,0.565,0.836,0.536,1.022,0.720,0.340,0.592,0.558,�k�k��,2.0,��
2022/05/10,10:40,0.565,0.837,0.538,1.022,0.720,0.341,0.591,0.560,�k��,2.9,��
2022/05/10,10:50,0.565,0.838,0.537,1.022,0.723,0.341,0.594,0.559,�k�k��,3.4,��
2022/05/10,11:00,0.565,0.839,0.537,1.024,0.721,0.341,0.593,0.559,�k��,3.6,��
2022/05/10,11:10,0.565,0.838,0.536,1.025,0.723,0.342,0.593,0.559,�k��,4.2,��
2022/05/10,11:20,0.566,0.838,0.539,1.025,0.723,0.342,0.593,0.558,�k��,4.1,��
2022/05/10,11:30,0.566,0.839,0.538,1.023,0.723,0.341,0.593,0.559,�k��,4.3,��
2022/05/10,11:40,0.565,0.841,0.538,1.021,0.725,0.342,0.593,0.559,�k��,3.9,��
2022/05/10,11:50,0.565,0.842,0.538,1.023,0.726,0.342,0.593,0.559,�k��,4.0,��
2022/05/10,12:00,0.565,0.842,0.540,1.021,0.724,0.342,0.593,0.560,���k��,3.0,��
2022/05/10,12:10,0.566,0.842,0.539,1.022,0.724,0.341,0.594,0.560,���k��,3.5,��
2022/05/10,12:20,0.568,0.844,0.539,1.022,0.725,0.342,0.593,0.559,���k��,2.9,��
2022/05/10,12:30,0.567,0.844,0.539,1.023,0.726,0.342,0.594,0.561,���k��,2.6,��
2022/05/10,12:40,0.568,0.844,0.539,1.022,0.725,0.342,0.595,0.559,���k��,2.5,��
2022/05/10,12:50,0.568,0.844,0.539,1.025,0.727,0.342,0.593,0.561,���k��,1.7,��
2022/05/10,13:00,0.568,0.844,0.541,1.026,0.725,0.342,0.593,0.559,��,2.3,��
2022/05/10,13:10,0.566,0.843,0.540,1.026,0.726,0.342,0.596,0.559,���쓌,2.3,��
2022/05/10,13:20,0.567,0.843,0.540,1.027,0.728,0.344,0.593,0.559,���k��,2.3,��
2022/05/10,13:30,0.568,0.843,0.542,1.026,0.726,0.341,0.594,0.560,��,1.9,��
2022/05/10,13:40,0.567,0.842,0.540,1.028,0.727,0.342,0.595,0.560,���k��,1.5,��
2022/05/10,13:50,0.568,0.844,0.540,1.028,0.729,0.342,0.595,0.559,���k��,1.9,��
2022/05/10,14:00,0.569,0.843,0.541,1.027,0.730,0.342,0.595,0.559,��,2.5,��
2022/05/10,14:10,0.567,0.843,0.540,1.026,0.727,0.340,0.595,0.559,��,2.3,��
2022/05/10,14:20,0.568,0.845,0.541,1.025,0.729,0.342,0.595,0.561,��,2.0,��
2022/05/10,14:30,0.568,0.845,0.540,1.026,0.728,0.341,0.595,0.561,��,2.6,��
2022/05/10,14:40,0.568,0.844,0.543,1.026,0.730,0.342,0.594,0.559,���k��,3.1,��
2022/05/10,14:50,0.568,0.845,0.540,1.025,0.729,0.343,0.595,0.559,���쓌,2.5,��
2022/05/10,15:00,0.570,0.844,0.542,1.027,0.728,0.341,0.593,0.560,��,2.3,��
2022/05/10,15:10,0.568,0.845,0.541,1.024,0.731,0.342,0.595,0.559,���k��,2.3,��
2022/05/10,15:20,0.568,0.845,0.540,1.025,0.729,0.342,0.596,0.560,���쓌,2.0,��
2022/05/10,15:30,0.567,0.847,0.540,1.025,0.728,0.343,0.596,0.562,���쓌,2.8,��
2022/05/10,15:40,0.569,0.846,0.541,1.029,0.730,0.342,0.596,0.559,���쓌,2.9,��
2022/05/10,15:50,0.569,0.847,0.542,1.026,0.729,0.341,0.595,0.560,���쓌,3.3,��
2022/05/10,16:00,0.567,0.848,0.541,1.028,0.729,0.343,0.594,0.560,���쓌,2.3,��
2022/05/10,16:10,0.567,0.845,0.540,1.028,0.730,0.343,0.596,0.560,��,2.8,��
2022/05/10,16:20,0.567,0.848,0.542,1.027,0.729,0.343,0.596,0.559,��,2.0,��
2022/05/10,16:30,0.568,0.847,0.542,1.031,0.731,0.344,0.596,0.560,���쓌,2.0,��
2022/05/10,16:40,0.569,0.848,0.541,1.028,0.729,0.345,0.596,0.560,���쓌,2.6,��
2022/05/10,16:50,0.569,0.849,0.542,1.028,0.728,0.344,0.595,0.560,���쓌,1.9,��
2022/05/10,17:00,0.569,0.850,0.542,1.026,0.731,0.342,0.595,0.559,��,1.7,��
2022/05/10,17:10,0.569,0.850,0.541,1.026,0.731,0.344,0.596,0.561,��,2.0,��
2022/05/10,17:20,0.569,0.849,0.540,1.027,0.729,0.344,0.595,0.561,���k��,1.2,��
2022/05/10,17:30,0.567,0.852,0.541,1.027,0.730,0.344,0.597,0.563,���쓌,1.7,��
2022/05/10,17:40,0.567,0.850,0.541,1.030,0.727,0.345,0.596,0.562,���쓌,1.1,��
2022/05/10,17:50,0.568,0.852,0.540,1.028,0.729,0.344,0.596,0.563,���쓌,1.7,��
2022/05/10,18:00,0.568,0.853,0.540,1.028,0.729,0.345,0.596,0.562,��,0.9,��
2022/05/10,18:10,0.570,0.851,0.540,1.028,0.731,0.343,0.595,0.564,���쓌,1.1,��
2022/05/10,18:20,0.570,0.850,0.541,1.031,0.731,0.343,0.596,0.561,��쓌,0.9,��
2022/05/10,18:30,0.570,0.850,0.540,1.031,0.732,0.345,0.596,0.563,�쓌,1.5,��
2022/05/10,18:40,0.569,0.849,0.541,1.030,0.731,0.343,0.594,0.562,�쓌,1.7,��
2022/05/10,18:50,0.568,0.850,0.542,1.029,0.731,0.345,0.595,0.561,�쓌,1.2,��
2022/05/10,19:00,0.570,0.850,0.543,1.031,0.732,0.344,0.597,0.563,��,1.4,��
2022/05/10,19:10,0.569,0.851,0.545,1.031,0.733,0.344,0.597,0.562,��쐼,0.9,��
2022/05/10,19:20,0.569,0.851,0.543,1.031,0.731,0.344,0.597,0.561,��,1.4,��
2022/05/10,19:30,0.570,0.850,0.544,1.034,0.732,0.344,0.596,0.562,��쐼,1.5,��
2022/05/10,19:40,0.569,0.849,0.543,1.029,0.731,0.344,0.597,0.562,��,1.1,��
2022/05/10,19:50,0.569,0.850,0.543,1.032,0.732,0.344,0.598,0.561,��쐼,1.5,��
2022/05/10,20:00,0.569,0.851,0.543,1.033,0.732,0.344,0.598,0.562,��쐼,1.7,��
2022/05/10,20:10,0.569,0.849,0.544,1.030,0.731,0.343,0.599,0.561,��쐼,2.0,��
2022/05/10,20:20,0.569,0.847,0.542,1.031,0.731,0.343,0.598,0.562,��쐼,1.5,��
2022/05/10,20:30,0.570,0.848,0.542,1.032,0.731,0.345,0.598,0.562,��,1.5,��
2022/05/10,20:40,0.568,0.850,0.543,1.031,0.732,0.344,0.598,0.562,��,1.2,��
2022/05/10,20:50,0.569,0.847,0.544,1.031,0.731,0.344,0.597,0.561,��쐼,1.5,��
2022/05/10,21:00,0.569,0.850,0.544,1.033,0.732,0.344,0.598,0.562,�쐼,1.1,��
2022/05/10,21:10,0.569,0.851,0.543,1.031,0.733,0.343,0.599,0.563,��쐼,0.9,��
2022/05/10,21:20,0.569,0.849,0.545,1.030,0.734,0.344,0.598,0.562,��쐼,0.6,��
2022/05/10,21:30,0.569,0.849,0.543,1.031,0.731,0.343,0.598,0.560,���쐼,0.8,��
2022/05/10,21:40,0.569,0.849,0.542,1.032,0.730,0.342,0.598,0.562,���k��,1.5,��
2022/05/10,21:50,0.567,0.850,0.545,1.030,0.732,0.343,0.599,0.561,���k��,1.1,��
2022/05/10,22:00,0.568,0.850,0.543,1.032,0.732,0.343,0.598,0.562,���k��,1.7,��
2022/05/10,22:10,0.570,0.848,0.542,1.028,0.733,0.342,0.598,0.562,���k��,1.9,��
2022/05/10,22:20,0.569,0.849,0.543,1.030,0.732,0.344,0.597,0.563,�k��,1.4,��
2022/05/10,22:30,0.569,0.850,0.544,1.031,0.733,0.343,0.598,0.562,�k��,1.4,��
2022/05/10,22:40,0.567,0.849,0.542,1.032,0.733,0.343,0.598,0.562,�k��,1.2,��
2022/05/10,22:50,0.569,0.848,0.543,1.031,0.732,0.344,0.598,0.562,�k,1.1,��
2022/05/10,23:00,0.569,0.848,0.541,1.033,0.732,0.345,0.599,0.561,�k,1.7,��
2022/05/10,23:10,0.569,0.847,0.542,1.032,0.733,0.344,0.598,0.561,�k�k��,2.0,��
2022/05/10,23:20,0.568,0.848,0.541,1.031,0.732,0.344,0.598,0.560,�k�k��,3.0,��
2022/05/10,23:30,0.568,0.848,0.543,1.032,0.732,0.342,0.599,0.560,�k�k��,2.9,��
2022/05/10,23:40,0.569,0.849,0.541,1.035,0.731,0.342,0.597,0.561,�k��,3.5,��
2022/05/10,23:50,0.567,0.848,0.542,1.032,0.733,0.343,0.599,0.563,�k��,3.2,��
